TimeEST,TemperatureF,Dew PointF,Humidity,Sea Level PressureIn,VisibilityMPH,Wind Direction,Wind SpeedMPH,Gust SpeedMPH,PrecipitationIn,Events,Conditions,WindDirDegrees,DateUTC
12:51 AM,28.9,28.0,96,30.25,4.0,Calm,Calm,-,N/A,,Clear,0,2012-02-06 05:51:00
1:51 AM,28.9,27.0,92,30.24,4.0,Calm,Calm,-,N/A,,Clear,0,2012-02-06 06:51:00
2:51 AM,28.0,27.0,96,30.24,3.0,Calm,Calm,-,N/A,,Clear,0,2012-02-06 07:51:00
3:51 AM,27.0,25.0,92,30.24,3.0,Calm,Calm,-,N/A,,Clear,0,2012-02-06 08:51:00
4:43 AM,26.6,24.8,93,30.22,3.0,Calm,Calm,-,N/A,,Partly Cloudy,0,2012-02-06 09:43:00
4:51 AM,26.1,24.1,92,30.24,3.0,Calm,Calm,-,N/A,,Clear,0,2012-02-06 09:51:00
5:07 AM,24.8,24.8,100,30.22,2.5,Calm,Calm,-,N/A,,Partly Cloudy,0,2012-02-06 10:07:00
5:16 AM,24.8,24.8,100,30.22,3.0,Calm,Calm,-,N/A,,Partly Cloudy,0,2012-02-06 10:16:00
5:51 AM,24.1,21.9,91,30.24,4.0,Calm,Calm,-,N/A,,Clear,0,2012-02-06 10:51:00
6:51 AM,23.0,21.9,96,30.23,5.0,Calm,Calm,-,N/A,,Clear,0,2012-02-06 11:51:00
7:51 AM,24.1,21.9,91,30.24,4.0,Calm,Calm,-,N/A,,Clear,0,2012-02-06 12:51:00
8:51 AM,28.0,28.0,100,30.25,4.0,Calm,Calm,-,N/A,,Clear,0,2012-02-06 13:51:00
9:51 AM,32.0,30.0,92,30.26,5.0,Calm,Calm,-,N/A,,Clear,0,2012-02-06 14:51:00
10:51 AM,39.0,34.0,82,30.25,9.0,Calm,Calm,-,N/A,,Clear,0,2012-02-06 15:51:00
11:51 AM,42.1,32.0,67,30.24,10.0,Calm,Calm,-,N/A,,Clear,0,2012-02-06 16:51:00
12:51 PM,44.1,30.0,58,30.20,10.0,Calm,Calm,-,N/A,,Mostly Cloudy,0,2012-02-06 17:51:00
1:51 PM,44.1,30.0,58,30.18,10.0,SW,4.6,-,N/A,,Overcast,230,2012-02-06 18:51:00
2:51 PM,43.0,30.9,62,30.17,10.0,South,6.9,-,N/A,,Overcast,190,2012-02-06 19:51:00
3:51 PM,42.1,27.0,55,30.17,10.0,SSW,6.9,-,N/A,,Overcast,210,2012-02-06 20:51:00
4:51 PM,41.0,30.9,67,30.16,10.0,South,8.1,-,N/A,,Overcast,190,2012-02-06 21:51:00
5:51 PM,41.0,30.9,67,30.18,10.0,WSW,4.6,-,N/A,,Overcast,240,2012-02-06 22:51:00
6:51 PM,39.9,30.9,70,30.18,10.0,SSW,4.6,-,N/A,,Scattered Clouds,200,2012-02-06 23:51:00
7:51 PM,37.9,30.9,76,30.19,10.0,South,6.9,-,N/A,,Clear,190,2012-02-07 00:51:00
8:51 PM,36.0,30.9,82,30.19,10.0,SSW,3.5,-,N/A,,Clear,210,2012-02-07 01:51:00
9:51 PM,36.0,30.9,82,30.20,10.0,SSW,3.5,-,N/A,,Clear,200,2012-02-07 02:51:00
10:51 PM,35.1,30.9,85,30.21,10.0,SSW,3.5,-,N/A,,Clear,210,2012-02-07 03:51:00
11:51 PM,33.8,30.2,87,30.19,10.0,Calm,Calm,-,N/A,,Clear,0,2012-02-07 04:51:00